TimeEST,TemperatureF,Dew PointF,Humidity,Sea Level PressureIn,VisibilityMPH,Wind Direction,Wind SpeedMPH,Gust SpeedMPH,PrecipitationIn,Events,Conditions,WindDirDegrees,DateUTC
12:33 AM,17.1,10.0,74,30.15,10.0,ESE,5.8,-,N/A,,Overcast,120,2014-01-10 05:33:00
12:55 AM,17.1,10.9,77,30.19,10.0,SE,5.8,-,N/A,,Overcast,130,2014-01-10 05:55:00
1:55 AM,18.0,12.0,78,30.16,10.0,ESE,5.8,-,N/A,,Overcast,110,2014-01-10 06:55:00
2:55 AM,18.0,12.0,78,30.15,10.0,ESE,5.8,-,N/A,,Overcast,120,2014-01-10 07:55:00
3:30 AM,18.0,12.0,78,30.12,10.0,East,5.8,-,N/A,,Overcast,100,2014-01-10 08:30:00
3:55 AM,18.0,12.9,81,30.13,10.0,ESE,5.8,-,N/A,,Overcast,120,2014-01-10 08:55:00
4:04 AM,18.0,12.9,81,30.09,10.0,ESE,5.8,-,N/A,,Overcast,120,2014-01-10 09:04:00
4:55 AM,19.0,14.0,81,30.12,10.0,ESE,4.6,-,N/A,,Overcast,120,2014-01-10 09:55:00
5:55 AM,19.9,15.1,81,30.10,10.0,SE,5.8,-,N/A,,Overcast,130,2014-01-10 10:55:00
6:55 AM,19.9,16.0,85,30.10,10.0,SE,6.9,-,N/A,,Overcast,130,2014-01-10 11:55:00
7:11 AM,19.9,16.0,85,30.06,10.0,ESE,5.8,-,N/A,,Overcast,120,2014-01-10 12:11:00
7:55 AM,21.0,17.1,85,30.08,9.0,SE,8.1,-,N/A,,Overcast,130,2014-01-10 12:55:00
8:55 AM,21.0,18.0,88,30.07,5.0,SE,6.9,-,N/A,,Overcast,130,2014-01-10 13:55:00
9:20 AM,21.0,19.0,92,30.04,2.5,SSE,8.1,-,N/A,,Overcast,150,2014-01-10 14:20:00
9:29 AM,21.9,19.0,89,30.04,1.8,SE,8.1,-,N/A,,Overcast,140,2014-01-10 14:29:00
9:55 AM,21.9,19.9,92,30.07,2.0,SE,8.1,-,N/A,,Overcast,140,2014-01-10 14:55:00
10:16 AM,21.9,19.9,92,30.03,4.0,SE,8.1,-,N/A,,Overcast,140,2014-01-10 15:16:00
10:24 AM,21.9,19.9,92,30.02,4.0,ESE,5.8,-,N/A,,Overcast,120,2014-01-10 15:24:00
10:55 AM,23.0,19.9,88,30.06,5.0,SE,6.9,-,N/A,,Overcast,130,2014-01-10 15:55:00
11:55 AM,25.0,21.0,85,30.03,5.0,ESE,8.1,-,N/A,,Overcast,120,2014-01-10 16:55:00
12:55 PM,26.1,23.0,88,29.99,3.0,SE,6.9,-,N/A,,Overcast,140,2014-01-10 17:55:00
1:11 PM,26.1,24.1,92,29.94,2.5,SE,8.1,-,N/A,,Overcast,140,2014-01-10 18:11:00
1:36 PM,27.0,24.1,89,29.93,3.0,SE,8.1,-,N/A,,Overcast,140,2014-01-10 18:36:00
1:55 PM,27.0,24.1,89,29.96,3.0,SE,8.1,-,N/A,,Overcast,130,2014-01-10 18:55:00
2:55 PM,28.9,25.0,85,29.92,4.0,SE,8.1,-,N/A,,Overcast,140,2014-01-10 19:55:00
3:55 PM,28.9,25.0,85,29.90,5.0,SSE,12.7,-,N/A,,Overcast,150,2014-01-10 20:55:00
4:48 PM,28.9,25.0,85,29.87,5.0,SSE,9.2,-,N/A,,Overcast,160,2014-01-10 21:48:00
4:55 PM,28.9,25.0,85,29.89,5.0,SE,9.2,-,N/A,,Overcast,140,2014-01-10 21:55:00
5:18 PM,28.9,25.0,85,29.87,6.0,SSE,8.1,-,N/A,,Overcast,150,2014-01-10 22:18:00
5:31 PM,28.9,25.0,85,29.87,6.0,SE,8.1,-,N/A,,Overcast,140,2014-01-10 22:31:00
5:55 PM,28.9,25.0,85,29.89,6.0,SSE,11.5,-,N/A,,Overcast,150,2014-01-10 22:55:00
6:55 PM,28.9,25.0,85,29.86,5.0,SE,9.2,-,N/A,,Overcast,130,2014-01-10 23:55:00
7:55 PM,28.9,25.0,85,29.83,6.0,ESE,8.1,-,N/A,,Overcast,120,2014-01-11 00:55:00
8:55 PM,28.9,26.1,89,29.76,4.0,ESE,5.8,-,N/A,,Overcast,110,2014-01-11 01:55:00
9:48 PM,28.9,27.0,92,29.69,2.5,East,9.2,-,0.00,Snow,Light Snow,100,2014-01-11 02:48:00
9:55 PM,28.9,27.0,92,29.71,2.0,East,8.1,17.3,0.00,Snow,Light Snow,100,2014-01-11 02:55:00
10:07 PM,30.0,27.0,88,29.67,1.8,ESE,10.4,-,0.01,Snow,Light Snow,110,2014-01-11 03:07:00
10:55 PM,30.0,28.0,92,29.66,1.5,East,5.8,-,0.05,Snow,Light Snow,100,2014-01-11 03:55:00
11:55 PM,30.9,28.9,92,29.59,1.2,East,9.2,-,0.05,Snow,Light Snow,100,2014-01-11 04:55:00